EW0482 Weather Reports


Display with metric or nautical units.
time (UTC)temp
F
wind
direction
speed
MPH
gust
MPH
rain 1hr
in
rain 24hr
in
rain mn
in
humidity
%
barometer
mb
20260506231522 69 234 1.0 9.0 0.00 0.00 0.00 67 1004.9
20260506230024 69 259 3.0 10.0 0.00 0.00 0.00 66 1004.9
20260506224519 69 175 1.0 7.0 0.00 0.00 0.00 65 1005.1
20260506223017 68 244 3.0 9.0 0.00 0.00 0.00 66 1005.4
20260506221515 68 227 1.0 8.0 0.00 0.00 0.00 66 1005.4
20260506220014 68 269 3.0 10.0 0.00 0.00 0.00 66 1005.7
20260506214513 68 210 0.0 8.0 0.00 0.00 0.00 66 1005.8
20260506213010 69 248 1.0 7.0 0.00 0.00 0.00 67 1006.0
20260506211509 69 234 1.0 7.0 0.00 0.00 0.00 68 1006.1
20260506210007 68 257 2.0 8.0 0.00 0.00 0.00 68 1006.2
20260506204514 69 254 2.0 7.0 0.00 0.00 0.00 66 1006.3
20260506203006 69 242 2.0 8.0 0.00 0.00 0.00 66 1006.4
20260506201509 70 241 1.0 8.0 0.00 0.00 0.00 67 1006.5
20260506200010 70 250 0.0 7.0 0.00 0.00 0.00 67 1006.7
20260506194505 69 252 1.0 7.0 0.00 0.00 0.00 67 1006.7
20260506193005 70 241 2.0 6.0 0.00 0.00 0.00 66 1006.9
20260506191504 70 245 0.0 8.0 0.00 0.00 0.00 65 1007.0
20260506190004 71 257 1.0 5.0 0.00 0.00 0.00 63 1007.1
20260506184502 72 166 0.0 2.0 0.00 0.00 0.00 63 1007.2
20260506183002 72 246 0.0 4.0 0.00 0.00 0.00 62 1007.2
20260506181608 71 217 0.0 3.0 0.00 0.00 0.00 61 1007.3
20260506180058 70 66 0.0 2.0 0.00 0.00 0.00 63 1007.3
20260506174555 69 77 0.0 4.0 0.00 0.00 0.00 63 1007.4
20260506173125 69 55 0.0 3.0 0.00 0.00 0.00 63 1007.4
20260506171558 69 134 0.0 3.0 0.00 0.00 0.00 64 1007.4
20260506170106 68 122 0.0 1.0 0.00 0.00 0.00 68 1007.3
20260506164549 67 107 0.0 1.0 0.00 0.00 0.00 68 1007.3
20260506163054 66 86 0.0 1.0 0.00 0.00 0.00 68 1007.4
20260506161546 65 85 0.0 1.0 0.00 0.00 0.00 71 1007.5
20260506160045 65 82 0.0 0.0 0.00 0.00 0.00 73 1007.5
20260506154600 64 111 0.0 2.0 0.00 0.00 0.00 74 1007.5
20260506153138 63 113 0.0 2.0 0.00 0.00 0.00 74 1007.5
20260506151534 62 148 0.0 1.0 0.00 0.00 0.00 75 1007.4
20260506150032 62 61 0.0 1.0 0.00 0.00 0.00 74 1007.5
20260506144527 60 61 0.0 2.0 0.00 0.00 0.00 74 1007.6
20260506143028 60 209 0.0 1.0 0.00 0.00 0.00 74 1007.5
20260506141522 59 255 0.0 0.0 0.00 0.00 0.00 72 1007.3
20260506140021 57 253 0.0 0.0 0.00 0.00 0.00 66 1007.2
20260506134516 55 253 0.0 0.0 0.00 0.00 0.00 53 1007.1
20260506133013 54 253 0.0 0.0 0.00 0.00 0.00 55 1007.1
20260506131514 54 253 0.0 0.0 0.00 0.00 0.00 57 1006.9
20260506130009 54 253 0.0 0.0 0.00 0.00 0.00 57 1006.7
20260506124508 54 252 0.0 0.0 0.00 0.00 0.00 55 1006.6
20260506123007 55 252 0.0 0.0 0.00 0.00 0.00 57 1006.5
20260506121506 55 252 0.0 0.0 0.00 0.00 0.00 58 1006.4
20260506120005 55 252 0.0 0.0 0.00 0.00 0.00 59 1006.3
20260506114504 55 252 0.0 0.0 0.00 0.00 0.00 60 1006.3
20260506113003 55 252 0.0 0.0 0.00 0.00 0.00 61 1006.2
20260506111503 55 252 0.0 0.0 0.00 0.00 0.00 62 1006.2
20260506110002 55 252 0.0 0.0 0.00 0.00 0.00 63 1006.2
20260506104500 55 252 0.0 0.0 0.00 0.00 0.00 63 1006.2
20260506103108 55 252 0.0 0.0 0.00 0.00 0.00 65 1006.2
20260506101559 55 252 0.0 0.0 0.00 0.00 0.00 66 1006.1
20260506100058 55 252 0.0 0.0 0.00 0.00 0.00 65 1006.2
20260506094557 55 252 0.0 0.0 0.00 0.00 0.00 67 1006.2
20260506093056 55 252 0.0 0.0 0.00 0.00 0.00 66 1006.2
20260506091556 55 252 0.0 0.0 0.00 0.00 0.00 66 1006.3
20260506090053 56 252 0.0 0.0 0.00 0.00 0.00 65 1006.4
20260506084552 56 252 0.0 0.0 0.00 0.00 0.00 65 1006.6
20260506083051 56 252 0.0 0.0 0.00 0.00 0.00 66 1006.5
20260506081649 56 252 0.0 0.0 0.00 0.00 0.00 66 1006.6
20260506073048 56 252 0.0 0.0 0.00 0.00 0.00 71 1006.7
20260506071544 56 252 0.0 0.0 0.00 0.00 0.00 73 1006.6
20260506061538 57 252 0.0 0.0 0.00 0.00 0.00 74 1006.1
20260506044534 59 252 0.0 0.0 0.00 0.00 0.00 75 1005.4
20260506043028 59 252 0.0 0.0 0.00 0.00 0.00 75 1005.1
20260506041527 60 252 0.0 0.0 0.00 0.00 0.00 75 1005.0
20260506040041 60 252 0.0 0.0 0.00 0.00 0.00 75 1004.9
20260506034524 61 252 0.0 0.0 0.00 0.00 0.00 75 1004.7
20260506033026 61 252 0.0 0.0 0.00 0.00 0.00 75 1004.5
20260506031520 61 252 0.0 0.0 0.00 0.00 0.00 74 1004.3
20260506030020 62 252 0.0 0.0 0.00 0.00 0.00 73 1004.1
20260506024527 62 252 0.0 1.0 0.00 0.00 0.00 71 1004.0
20260506023018 62 252 0.0 0.0 0.00 0.00 0.00 70 1003.6
20260506021535 63 252 0.0 0.0 0.00 0.00 0.00 68 1003.5
20260506020018 63 252 0.0 0.0 0.00 0.00 0.00 68 1003.5
20260506014522 62 252 0.0 0.0 0.00 0.00 0.00 68 1003.4
20260506013015 62 252 0.0 4.0 0.00 0.00 0.00 68 1003.4
20260506011522 63 255 0.0 3.0 0.00 0.00 0.00 68 1003.4
20260506010015 63 243 0.0 4.0 0.00 0.00 0.00 67 1003.4
20260506004513 63 286 0.0 3.0 0.00 0.00 0.00 66 1003.4
20260506003013 64 239 0.0 4.0 0.00 0.00 0.00 65 1003.2
20260506001514 64 234 0.0 5.0 0.00 0.00 0.00 65 1003.2
20260506000012 64 243 0.0 7.0 0.00 0.00 0.00 64 1003.2
20260505234513 64 250 0.0 6.0 0.00 0.00 0.00 65 1003.2
20260505233010 64 247 1.0 9.0 0.00 0.00 0.00 64 1003.3